Home   Weather   Worms   Past weeks

Flag for Germany Past Weather in Worms, Rhineland-Palatinate, Germany — Yesterday and Last 2 Weeks

Now
55 °F

Light rain. Mostly cloudy.


Feels Like: 55 °F
Forecast: 53 / 60 °F
Wind: 3 mph from East

Location: Wiesbaden Airport

Current Time: Oct 1, 2016 at 5:20:31 AM

Latest Report: Oct 1, 2016 at 4:58 AM


Visibility: 6 mi

Pressure: 29.86 "Hg

Humidity: 88%

Dew Point: 52 °F

Location of WormsLocation

Past Weather in Worms — Graph

°F

Worms Temperature Yesterday

Maximum temperature yesterday: 62 °F (at 10:58 AM)
Minimum temperature yesterday: 56 °F (at 10:58 PM)
Average temperature yesterday: 60 °F

High & Low Weather Summary for the Past Weeks

 TemperatureHumidityPressure
High79 °F (Sep 29, 3:58 PM)88% (Sep 28, 5:58 AM)30.37 "Hg (Sep 28, 5:58 AM)
Low45 °F (Sep 22, 5:58 AM)29% (Sep 29, 4:58 PM)29.88 "Hg (Oct 1, 3:58 AM)
Average61 °F62%30.12 "Hg
* Reported Sep 16 3:58 AM — Oct 1 3:58 AM, Worms, Weather by CustomWeather, © 2016

Note: Actual official high and low records may vary slightly from our data, if they occured in-between our weather recording intervals... More about our weather records

Advertising

Worms Weather History for the Previous 24 Hours

Scroll right to see more
 ConditionsComfort  
Time TempWeatherWind HumidityBarometerVisibility
3:58 AM
Sat, Oct 1
55 °FLight rain. Mostly cloudy.2 mph88%29.88 "Hg5 mi
2:58 AM55 °FRain. Overcast.3 mph88%29.91 "Hg6 mi
1:58 AM57 °FLight rain. Overcast.2 mph77%29.92 "HgN/A
12:58 AM57 °FOvercast.No wind77%29.94 "HgN/A
11:58 PM
Fri, Sep 30
57 °FCool.N/A76%29.96 "HgN/A
10:58 PM56 °FMostly cloudy.3 mph78%29.98 "HgN/A
9:58 PM57 °FPassing clouds.3 mph77%29.99 "HgN/A
8:58 PM57 °FPartly cloudy.3 mph77%29.99 "HgN/A
7:58 PM59 °FOvercast.No wind68%29.98 "HgN/A
6:58 PM60 °FOvercast.2 mph68%29.99 "HgN/A
5:58 PM61 °FScattered clouds.3 mph63%29.99 "HgN/A
4:58 PM61 °FBroken clouds.5 mph63%29.99 "HgN/A
3:58 PM61 °FMore clouds than sun.6 mph59%30.01 "HgN/A
2:58 PM57 °FOvercast.6 mph77%30.01 "HgN/A
1:59 PM61 °FLight rain. Overcast.12 mph63%30.01 "HgN/A
12:58 PM61 °FOvercast.6 mph66%30.00 "HgN/A
11:58 AM62 °FOvercast.8 mph63%29.99 "HgN/A
10:58 AM62 °FOvercast.5 mph71%29.98 "HgN/A
9:58 AM61 °FOvercast.No wind72%29.97 "HgN/A
8:58 AM61 °FOvercast.No wind68%29.96 "HgN/A
7:58 AM61 °FOvercast.3 mph66%29.96 "HgN/A
6:58 AM61 °FOvercast.2 mph71%29.94 "HgN/A
5:58 AM59 °FOvercast.3 mph74%29.95 "HgN/A
Weather by CustomWeather, © 2016

See weather overviewHow to use our weather pages